Location: Artiguedieu
(43.5000°N, 0.5454°E)
Time: 12:37:04
(UTC+00:00)

Altair - All Passes

Search period start: 02 August 2021 00:00
Search period end: 12 August 2021 00:00
Orbit: 1502 x 1682 km, 47.2° (Epoch: 02 August)

Date Brightness Start Highest point End Pass type
(mag) Time Alt. Az. Time Alt. Az. Time Alt. Az.
02 Aug - 01:30:40 10° SW 01:40:06 73° SSE 01:49:16 10° ENE visible
02 Aug - 03:35:39 10° W 03:45:00 72° N 03:54:11 10° ENE visible
02 Aug - 05:41:00 10° WNW 05:50:16 82° NNE 05:59:30 10° ESE daylight
02 Aug - 07:45:55 10° WNW 07:54:35 49° SW 08:03:21 10° SSE daylight
02 Aug - 09:53:48 10° W 09:57:31 13° WSW 10:01:17 10° SSW daylight
02 Aug - 23:04:14 10° S 23:11:25 24° SE 23:18:26 10° E visible
03 Aug - 01:05:32 10° SW 01:14:57 69° SSE 01:24:06 10° ENE visible
03 Aug - 03:10:24 10° W 03:19:47 73° N 03:28:59 10° ENE visible
03 Aug - 05:15:47 10° WNW 05:25:05 80° NNE 05:34:18 10° ESE daylight
03 Aug - 07:20:42 10° WNW 07:29:29 53° SW 07:38:20 10° SE daylight
03 Aug - 09:27:56 10° W 09:32:31 15° SW 09:37:09 10° SSW daylight
03 Aug - 22:39:33 10° S 22:46:22 22° SE 22:53:02 10° E visible
04 Aug - 00:40:25 10° SW 00:49:49 65° SSE 00:58:56 10° ENE visible
04 Aug - 02:45:09 10° W 02:54:34 75° N 03:03:48 10° ENE visible
04 Aug - 04:50:34 10° WNW 04:59:53 78° NNE 05:09:05 10° E daylight
04 Aug - 06:55:30 10° WNW 07:04:24 57° SW 07:13:19 10° SE daylight
04 Aug - 09:02:14 10° W 09:07:30 17° SW 09:12:50 10° SSW daylight
04 Aug - 22:14:56 10° S 22:21:20 20° SE 22:27:35 10° E visible
05 Aug - 00:15:19 10° SW 00:24:41 61° SE 00:33:45 10° ENE visible
05 Aug - 02:19:54 10° W 02:29:22 76° NNW 02:38:36 10° ENE visible
05 Aug - 04:25:21 10° WNW 04:34:40 76° NNE 04:43:52 10° E daylight
05 Aug - 06:30:18 10° WNW 06:39:17 60° SW 06:48:16 10° SE daylight
05 Aug - 08:36:41 10° W 08:42:30 19° SW 08:48:22 10° SSW daylight
05 Aug - 21:50:24 10° SSE 21:56:18 18° SE 22:02:03 10° E visible
05 Aug - 23:50:13 10° SW 23:59:33 58° SE 00:08:36 10° ENE visible
06 Aug - 01:54:38 10° W 02:04:09 78° NNW 02:13:25 10° ENE visible
06 Aug - 04:00:08 10° WNW 04:09:29 75° N 04:18:40 10° E visible
06 Aug - 06:05:07 10° WNW 06:14:10 64° SSW 06:23:12 10° SE daylight
06 Aug - 08:11:11 10° W 08:17:29 21° SW 08:23:50 10° S daylight
06 Aug - 21:25:59 10° SSE 21:31:16 16° SE 21:36:27 10° E visible
06 Aug - 23:25:09 10° SW 23:34:26 54° SE 23:43:24 10° ENE visible
07 Aug - 01:29:23 10° WSW 01:38:57 80° NNW 01:48:13 10° ENE visible
07 Aug - 03:34:54 10° WNW 03:44:16 73° N 03:53:27 10° E visible
07 Aug - 05:39:55 10° WNW 05:49:02 68° SSW 05:58:07 10° SE daylight
07 Aug - 07:45:45 10° W 07:52:27 23° SW 07:59:12 10° S daylight
07 Aug - 21:01:42 10° SSE 21:06:14 14° SE 21:10:41 10° E visible
07 Aug - 23:00:06 10° SSW 23:09:18 51° SE 23:18:13 10° ENE visible
08 Aug - 01:04:09 10° WSW 01:13:45 82° NNW 01:23:03 10° ENE visible
08 Aug - 03:09:39 10° WNW 03:19:03 72° N 03:28:14 10° E visible
08 Aug - 05:14:43 10° WNW 05:23:55 72° SSW 05:33:01 10° SE daylight
08 Aug - 07:20:21 10° W 07:27:25 26° SW 07:34:30 10° S daylight
08 Aug - 20:37:41 10° SE 20:41:13 12° ESE 20:44:43 10° E visible
08 Aug - 22:35:05 10° SSW 22:44:12 47° SE 22:53:01 10° ENE visible
09 Aug - 00:38:54 10° WSW 00:48:33 85° NNW 00:57:52 10° ENE visible
09 Aug - 02:44:25 10° W 02:53:50 72° N 03:03:02 10° E visible
09 Aug - 04:49:31 10° WNW 04:58:47 76° SSW 05:07:55 10° SE daylight
09 Aug - 06:55:01 10° WNW 07:02:23 28° SW 07:09:46 10° S daylight
09 Aug - 20:14:14 10° SE 20:16:12 11° ESE 20:18:09 10° ESE visible
09 Aug - 22:10:05 10° SSW 22:19:06 44° SE 22:27:48 10° ENE visible
10 Aug - 00:13:41 10° WSW 00:23:21 87° NNW 00:32:42 10° ENE visible
10 Aug - 02:19:09 10° W 02:28:36 71° N 02:37:49 10° E visible
10 Aug - 04:24:19 10° WNW 04:33:38 79° SSW 04:42:47 10° ESE visible
10 Aug - 06:29:41 10° WNW 06:37:20 31° SW 06:44:59 10° S daylight
10 Aug - 21:45:07 10° SSW 21:53:59 41° SE 22:02:35 10° ENE visible
10 Aug - 23:48:27 10° WSW 23:58:10 90° SSE 00:07:32 10° ENE visible
11 Aug - 01:53:54 10° W 02:03:23 71° N 02:12:36 10° E visible
11 Aug - 03:59:07 10° WNW 04:08:29 83° SSW 04:17:39 10° ESE visible
11 Aug - 06:04:23 10° WNW 06:12:18 34° SW 06:20:10 10° SSE daylight
11 Aug - 21:20:10 10° SSW 21:28:54 38° SE 21:37:21 10° ENE visible
11 Aug - 23:23:14 10° WSW 23:32:58 87° SSE 23:42:22 10° ENE visible
